This demonstration page uses our WeatherBlox Daily Observations layout. Learn more.

Left ArrowRight Arrow

40.92945, -100.16068

Hourly Observations for October 31, 2016

Temp ( °F °C ) Dew Point ( °F °C ) Humidity (%) Winds ( mph kmh ) Pressure ( in mb ) Visibility ( mi km ) Precip ( " mm )
12:15 am 00:15 Clear 50 10.1 44 6.5 79 79 S 9 15 29.97 1015 10 16 N/A
12:35 am 00:35 Clear 51 10.5 44 6.7 78 78 S 14 22 29.97 1015 10 16 N/A
12:55 am 00:55 Clear 51 10.5 44 6.9 79 79 S 17 28 29.94 1014 10 16 N/A
1:15 am 01:15 Clear 51 10.3 44 6.8 79 79 S 12 19 29.94 1014 10 16 N/A
1:35 am 01:35 Clear 50 10.1 44 6.8 80 80 S 14 22 29.94 1014 10 16 N/A
1:55 am 01:55 Clear 50 10.2 44 6.8 80 80 S 15 24 29.91 1013 10 16 N/A
2:15 am 02:15 Clear 50 10 44 6.8 81 81 S 14 22 29.91 1013 10 16 N/A
2:35 am 02:35 Clear 50 10.1 44 6.8 80 80 S 15 24 29.91 1013 10 16 N/A
2:55 am 02:55 Clear 50 10.2 45 7 81 81 S 16 26 29.88 1012 10 16 N/A
3:15 am 03:15 Clear 50 10.2 45 7 81 81 S 18 30 29.88 1012 10 16 N/A
3:35 am 03:35 Clear 50 10 45 7 82 82 SSE 13 20 29.85 1011 10 16 N/A
3:55 am 03:55 Clear 50 9.9 45 7 82 82 SE 7 11 29.85 1011 10 16 N/A
4:15 am 04:15 Clear 49 9.3 45 7 86 86 SE 7 11 29.85 1011 10 16 N/A
4:35 am 04:35 Clear 49 9.2 45 7 86 86 SE 6 9 29.83 1010 10 16 N/A
4:55 am 04:55 Clear 49 9.2 45 7.1 87 87 SSE 10 17 29.83 1010 10 16 N/A
5:15 am 05:15 Clear 48 9.1 45 7.2 88 88 SSE 10 17 29.80 1009 10 16 N/A
5:35 am 05:35 Partly Cloudy 48 9 45 7.2 89 89 SSE 8 13 29.80 1009 10 16 N/A
5:55 am 05:55 Mostly Cloudy 48 9.1 46 7.5 90 90 S 12 19 29.80 1009 10 16 N/A
6:15 am 06:15 Mostly Cloudy 48 9.1 46 7.5 90 90 SSE 6 9 29.80 1009 10 16 N/A
6:35 am 06:35 Cloudy 49 9.2 46 7.6 90 90 SSE 13 20 29.77 1008 10 16 N/A
6:55 am 06:55 Cloudy 49 9.3 46 7.8 90 90 SSE 12 19 29.77 1008 10 16 N/A
7:15 am 07:15 Cloudy 49 9.2 46 7.9 92 92 SSE 10 17 29.77 1008 7 11 N/A
7:35 am 07:35 Cloudy 49 9.5 47 8.2 92 92 SSE 12 19 29.74 1007 7 11 N/A
7:55 am 07:55 Cloudy 50 9.9 47 8.5 91 91 S 9 15 29.77 1008 7 11 N/A
8:15 am 08:15 Cloudy 50 10 47 8.6 91 91 SSE 10 17 29.74 1007 7 11 N/A
8:35 am 08:35 Cloudy 50 10.1 48 8.7 91 91 SSE 10 17 29.74 1007 7 11 N/A
8:55 am 08:55 Cloudy with Mist and Fog 50 10.2 48 9 92 92 SSE 7 11 29.74 1007 5 8 N/A
9:15 am 09:15 Cloudy 51 10.5 48 9.1 91 91 SSE 9 15 29.71 1006 7 11 N/A
9:35 am 09:35 Mostly Cloudy 51 10.8 49 9.2 90 90 S 7 11 29.71 1006 7 11 N/A
9:55 am 09:55 Mostly Cloudy 52 11.2 49 9.5 89 89 S 8 13 29.71 1006 7 11 N/A
10:15 am 10:15 Partly Cloudy 53 11.6 49 9.5 87 87 SSE 10 17 29.71 1006 7 11 N/A
10:35 am 10:35 Sunny 54 12.1 49 9.6 85 85 S 7 11 29.71 1006 10 16 N/A
10:55 am 10:55 Sunny 55 12.7 50 9.8 83 83 S 6 9 29.71 1006 10 16 N/A
11:15 am 11:15 Sunny 58 14.3 50 10.1 76 76 SSW 7 11 29.68 1005 10 16 N/A
11:35 am 11:35 Sunny 60 15.4 51 10.3 72 72 S 7 11 29.65 1004 10 16 N/A
11:55 am 11:55 Sunny 62 16.5 50 10.2 67 67 SSW 8 13 29.65 1004 10 16 N/A
12:15 pm 12:15 Sunny 63 17.2 50 10.1 63 63 SW 9 15 29.62 1003 10 16 N/A
12:35 pm 12:35 Sunny 64 18 50 10.1 60 60 SSW 9 15 29.62 1003 10 16 N/A
12:55 pm 12:55 Sunny 65 18.6 50 10 58 58 S 5 7 29.62 1003 10 16 N/A
1:15 pm 13:15 Sunny 68 20 50 10.1 53 53 WSW 6 9 29.62 1003 10 16 N/A
1:35 pm 13:35 Sunny 69 20.6 50 10 51 51 SSW 5 7 29.59 1002 10 16 N/A
1:55 pm 13:55 Sunny 70 21 50 9.8 49 49 S 3 6 29.59 1002 10 16 N/A
2:15 pm 14:15 Sunny 72 22.1 49 9.7 45 45 N N/A 29.56 1001 10 16 N/A
2:35 pm 14:35 Sunny 73 22.6 49 9.7 44 44 N N/A 29.56 1001 10 16 N/A
2:55 pm 14:55 Sunny 74 23.1 50 9.8 43 43 W 6 9 29.56 1001 10 16 N/A
3:15 pm 15:15 Sunny 74 23.5 48 9 40 40 WNW 6 9 29.53 1000 10 16 N/A
3:35 pm 15:35 Sunny 76 24.2 47 8.4 37 37 WNW 5 7 29.53 1000 10 16 N/A
3:55 pm 15:55 Sunny 76 24.5 46 8 35 35 N N/A 29.53 1000 10 16 N/A
4:15 pm 16:15 Sunny 77 24.9 45 7.3 33 33 N N/A 29.53 1000 10 16 N/A
4:35 pm 16:35 Sunny 76 24.6 46 7.7 34 34 N N/A 29.53 1000 10 16 N/A
4:55 pm 16:55 Sunny 76 24.6 46 8 35 35 N N/A 29.53 1000 10 16 N/A
5:15 pm 17:15 Sunny 76 24.2 47 8.4 37 37 N N/A 29.56 1001 10 16 N/A
5:35 pm 17:35 Sunny 75 23.7 47 8.6 38 38 N N/A 29.59 1002 10 16 N/A
5:55 pm 17:55 Sunny 75 23.9 49 9.2 39 39 N N/A 29.56 1001 10 16 N/A
6:15 pm 18:15 Sunny 72 22.2 50 10 46 46 N N/A 29.59 1002 10 16 N/A
6:35 pm 18:35 Sunny 67 19.6 51 10.3 55 55 N N/A 29.62 1003 10 16 N/A
7:15 pm 19:15 Hazy 60 15.4 47 8.1 62 62 NW 6 9 29.68 1005 5 8 N/A
7:35 pm 19:35 Clear 62 16.4 46 8 58 58 N 5 7 29.68 1005 10 16 N/A
7:55 pm 19:55 Clear 60 15.3 45 7.4 60 60 N 6 9 29.71 1006 7 11 N/A
8:15 pm 20:15 Clear 65 18.3 40 4.6 41 41 NNW 10 17 29.68 1005 10 16 N/A
8:35 pm 20:35 Clear 63 17.2 37 2.9 39 39 NNW 7 11 29.71 1006 10 16 N/A
8:55 pm 20:55 Clear 58 14.6 37 2.8 45 45 NW 8 13 29.71 1006 10 16 N/A
9:15 pm 21:15 Clear 54 12.4 37 2.9 53 53 WNW 8 13 29.74 1007 10 16 N/A
9:35 pm 21:35 Clear 54 12.4 37 2.6 52 52 WNW 9 15 29.74 1007 10 16 N/A
9:55 pm 21:55 Clear 55 12.6 36 2 49 49 WNW 9 15 29.74 1007 10 16 N/A
10:15 pm 22:15 Clear 54 12.1 35 1.6 49 49 NW 8 13 29.77 1008 10 16 N/A
10:35 pm 22:35 Clear 55 12.5 34 1 46 46 NW 8 13 29.77 1008 10 16 N/A
10:55 pm 22:55 Clear 53 11.7 33 0.5 46 46 NW 9 15 29.80 1009 10 16 N/A
11:15 pm 23:15 Clear 51 10.8 32 0.1 48 48 NW 9 15 29.83 1010 10 16 N/A
11:35 pm 23:35 Clear 49 9.2 32 0.2 54 54 NW 9 15 29.83 1010 10 16 N/A
11:55 pm 23:55 Clear 46 7.7 32 0.1 59 59 WNW 7 11 29.85 1011 10 16 N/A

Powered by AerisWeather